Location: Mount Kobau Star Party
(49.1167°N, 119.7333°W)
Time: 10:54:21
(UTC-07:00)

ARIANE 6 FM1 Upper Stage - Pass Details

Date: 15 April 2026
Orbit: 526 x 601 km, 62.0° (Epoch: 18 May)

Event Time Altitude Azimuth Distance (km) Brightness Sun altitude
Rises 20:52:51 0° 257° (WSW) 2,717 7.0 -10.1°
Reaches altitude 10° 20:55:19 10° 270° (W) 1,813 6.3 -10.4°
Maximum altitude 20:58:50 27° 330° (NNW) 1,046 4.8 -10.9°
Drops below altitude 10° 21:02:20 10° 30° (NNE) 1,789 5.2 -11.4°
Sets 21:04:46 0° 43° (NE) 2,675 6.0 -11.8°
